Preview of NWS' New Version of Forecast
This preview is not operational and should not be used for support decisions.

Regional Weather Roundup (RWR)

Issued by National Weather Service (NWS)

                            
000
ASCA42 TJSJ 190210
RWRPR 
PUERTO RICO/U.S. VIRGIN ISLANDS HOURLY WEATHER ROUNDUP
NATIONAL WEATHER SERVICE SAN JUAN PR
1000 PM AST WED SEP 18 2019

PRZ001>002-007>008-010-190300-
PUERTO RICO
  
CITY           SKY/WX    TMP DP  RH WIND       PRES   REMARKS
SAN JUAN LMM   CLEAR     82  75  78 E8        29.86R                  
CEIBA          CLEAR     82  75  78 SE6       29.88R                  
$$

VIZ001>002-190300-
U.S. VIRGIN ISLANDS
  
CITY           SKY/WX    TMP DP  RH WIND       PRES   REMARKS
CHARLOTTE AMA  CLEAR     82  73  74 E6        29.87R                  
CHRISTIANSTED  PTCLDY    79  73  83 N5        29.87R                  
$$

HOURLY WEATHER ROUNDUP FOR THE NEWS MEDIA
  
CITY           SKY/WX    TMP DP  RH WIND       PRES   REMARKS
ORLANDO        FAIR      78  70  76 NE9       30.00S                  
NEW YORK       FAIR      57  46  66 NE6       30.31R                  
NEWARK         FAIR      63  44  50 NE8       30.30R                  
CHICAGO        MOCLDY    72  60  66 SE5       30.07R                  
HARTFORD       FAIR      45  42  89 CALM      30.31S                  
BOSTON         FAIR      56  41  57 N8        30.35R                  
DALLAS         PTCLDY    83  71  67 E8        29.89R                  
PHILADELPHIA   FAIR      61  49  64 E8        30.29R                  
LOS ANGELES    PTCLDY    71  63  75 SW12      29.86F                  
WASHINGTON DC  FAIR      63  50  62 E5        30.23R